Simultaneous Nadir Overpasses (SNOs) Predictions

Prediction of SNOs between AQUA and METOP-B Satellite Orbit:

Table of predicted SNOs for the next 14.0 days since TLE Epoch: 9/16/2023
Index Date (AQUA) Time (AQUA) Lat,Lon (AQUA) SZA (AQUA ) Date (METOP-B) Time (METOP-B) Lat,Lon (METOP-B) SZA (METOP-B ) Distance(km) Time Diff (sec)
1 09/16/2023 16:19:26 74.78, -68.60 72.15 09/16/2023 16:18:39 74.79, -68.63 72.16 1.20 47
2 09/16/2023 17:08:51 -74.87, 98.81 107.75 09/16/2023 17:09:19 -74.87, 98.91 107.75 2.94 28
3 09/19/2023 09:22:06 -74.76,-144.19 106.83 09/19/2023 09:20:57 -74.76,-144.30 106.83 3.23 69
4 09/19/2023 10:11:32 74.82, 23.31 73.24 09/19/2023 10:11:35 74.84, 23.27 73.27 3.18 3
5 09/19/2023 11:01:01 -75.11,-169.80 106.45 09/19/2023 11:02:11 -75.11,-168.63 106.45 33.35 70
6 09/22/2023 03:14:11 -74.81, -52.29 105.72 09/22/2023 03:13:53 -74.80, -52.42 105.72 3.66 18
7 09/22/2023 04:03:37 74.86, 115.21 74.36 09/22/2023 04:04:31 74.89, 115.14 74.38 2.99 54
8 09/24/2023 20:16:51 74.83,-127.98 75.36 09/24/2023 20:16:08 74.80,-128.00 75.33 3.21 43
9 09/24/2023 21:06:15 -74.86, 39.58 104.59 09/24/2023 21:06:48 -74.89, 39.57 104.57 2.56 33
10 09/27/2023 13:19:26 -74.79, 156.51 103.63 09/27/2023 13:18:24 -74.80, 156.41 103.62 2.96 62
11 09/27/2023 14:08:52 74.85, -36.01 76.45 09/27/2023 14:09:02 74.87, -36.04 76.47 2.74 10



Historial Predications of SNOs between AQUA and METOP-B
